This is the latest recevied weather packets stored in our database for station/object R1CBW-13. If no packets are shown the sender has not sent any weather packets the latest 10 day(s).
| Time | Temp. | Humidity | Pressure | Rain* | Wind** | Luminosity | Snow |
|---|---|---|---|---|---|---|---|
| 1777437475 | 2.22° C | 57% | 1018.8 hPa | 0 mm | - | - | - |
| 1777437415 | 1.67° C | 58% | 1018.8 hPa | 0 mm | - | - | - |
| 1777437355 | 1.67° C | 59% | 1018.9 hPa | 0 mm | - | - | - |
| 1777437295 | 1.67° C | 58% | 1018.8 hPa | 0 mm | - | - | - |
| 1777437235 | 2.78° C | 57% | 1018.8 hPa | 0 mm | - | - | - |
| 1777437175 | 1.67° C | 59% | 1018.7 hPa | 0 mm | - | - | - |
| 1777437115 | 1.67° C | 59% | 1018.9 hPa | 0 mm | - | - | - |
| 1777437055 | 1.67° C | 57% | 1018.9 hPa | 0 mm | - | - | - |
| 1777436995 | 2.22° C | 58% | 1018.8 hPa | 0 mm | - | - | - |
| 1777436935 | 2.22° C | 57% | 1018.8 hPa | 0 mm | - | - | - |
| 1777436875 | 2.22° C | 57% | 1018.7 hPa | 0 mm | - | - | - |
| 1777436815 | 2.78° C | 57% | 1018.7 hPa | 0 mm | - | - | - |
| 1777436755 | 2.22° C | 57% | 1018.7 hPa | 0 mm | - | - | - |
| 1777436695 | 2.78° C | 56% | 1018.7 hPa | 0 mm | - | - | - |
| 1777436635 | 2.22° C | 58% | 1018.7 hPa | 0 mm | - | - | - |
| 1777436575 | 1.67° C | 57% | 1018.8 hPa | 0 mm | - | - | - |
| 1777436515 | 3.33° C | 55% | 1018.8 hPa | 0 mm | - | - | - |
| 1777436455 | 2.22° C | 57% | 1018.7 hPa | 0 mm | - | - | - |
| 1777436395 | 2.78° C | 56% | 1018.7 hPa | 0 mm | - | - | - |
| 1777436335 | 2.22° C | 58% | 1018.7 hPa | 0 mm | - | - | - |
| 1777436275 | 1.67° C | 59% | 1018.7 hPa | 0 mm | - | - | - |
| 1777436215 | 1.11° C | 60% | 1018.8 hPa | 0 mm | - | - | - |
| 1777436155 | 1.11° C | 60% | 1018.7 hPa | 0 mm | - | - | - |
| 1777436095 | 1.67° C | 58% | 1018.8 hPa | 0 mm | - | - | - |
| 1777436035 | 2.22° C | 58% | 1018.7 hPa | 0 mm | - | - | - |
* Rain latest hour (hover to see other rain measurements)
** Current wind speed in m/s (hover to see current wind gust speed)